Thief River Falls, MN

3:29 PM CDT on August 23, 2017 (GMT -0500)
Thief River Falls Regional

Weather History for KTVF - November, 2013

Change the Weather History Date:

Friday, November 15, 2013

  Actual Average Record
Temperature  
Mean Temperature 37 °F -  
Max Temperature 48 °F 32 °F 60 °F (2015)
Min Temperature 26 °F 18 °F 0 °F (2014)
Degree Days  
Heating Degree Days 28    
Moisture  
Dew Point 30 °F    
Average Humidity 75    
Maximum Humidity 93    
Minimum Humidity 54    
Precipitation  
Precipitation 0.01 in - - ()
Sea Level Pressure  
Sea Level Pressure 29.60 in    
Wind  
Wind Speed 9 mph (South)    
Max Wind Speed 17 mph    
Max Gust Speed 24 mph    
Visibility 8 miles    
Events      
Averages and records for this station are not official NWS values.
T = Trace of Precipitation, MM = Missing Value Source: NWS Daily Summary

Daily Weather History Graph

Daily Weather History Graph

Search for Another Location

Airport or City:

Trip Planner

Search our weather history database for the weather conditions in past years. The results will help you decide how hot, cold, wet, or windy it might be!

Date:

Astronomy

Nov. 15, 2013 Rise Set
Actual Time 7:31 AM CST 4:46 PM CST
Civil Twilight 6:57 AM CST 5:20 PM CST
Nautical Twilight 6:19 AM CST 5:58 PM CST
Astronomical Twilight 5:43 AM CST 6:34 PM CST
Moon 3:50 PM CST (11/15) 5:21 AM CST (11/15)
Length of Visible Light 10h 22m
Length of Day
9h 14m
Waxing Gibbous, 96% of the Moon is Illuminated
Nov 15
Waxing Gibbous
Nov 17
Full
Nov 25
Last Quarter
Dec 2
New
Dec 9
First Quarter

Hourly Weather History & Observations

Time (CST) Temp. Windchill Dew Point Humidity Pressure Visibility Wind Dir Wind Speed Gust Speed Precip Events Conditions
12:15 AM 37.4 °F 29.8 °F 33.8 °F 87% 29.73 in 8.0 mi NW 11.5 mph - N/A   Overcast
12:35 AM 35.6 °F 29.2 °F 32.0 °F 87% 29.74 in 8.0 mi NW 8.1 mph - N/A   Overcast
12:55 AM 35.6 °F 29.9 °F 30.2 °F 81% 29.74 in 7.0 mi WNW 6.9 mph - N/A   Mostly Cloudy
1:15 AM 33.8 °F 29.6 °F 30.2 °F 87% 29.74 in 7.0 mi WNW 4.6 mph - N/A   Partly Cloudy
1:35 AM 33.8 °F 28.6 °F 28.4 °F 81% 29.74 in 10.0 mi West 5.8 mph - N/A   Mostly Cloudy
1:55 AM 33.8 °F 29.6 °F 28.4 °F 81% 29.74 in 10.0 mi West 4.6 mph - N/A   Mostly Cloudy
2:15 AM 32.0 °F 28.7 °F 28.4 °F 87% 29.73 in 10.0 mi West 3.5 mph - N/A   Clear
2:35 AM 30.2 °F 26.7 °F 26.6 °F 86% 29.74 in 10.0 mi WSW 3.5 mph - N/A   Clear
2:55 AM 30.2 °F 25.4 °F 26.6 °F 86% 29.74 in 7.0 mi West 4.6 mph - N/A   Mostly Cloudy
3:15 AM 30.2 °F 25.4 °F 26.6 °F 86% 29.73 in 7.0 mi WSW 4.6 mph - N/A   Scattered Clouds
3:35 AM 30.2 °F 25.4 °F 26.6 °F 86% 29.73 in 5.0 mi WSW 4.6 mph - N/A   Clear
3:55 AM 28.4 °F - 26.6 °F 93% 29.73 in 4.0 mi Calm Calm - N/A   Clear
4:15 AM 28.4 °F - 26.6 °F 93% 29.73 in 0.2 mi Calm Calm - N/A   Unknown
4:35 AM 28.4 °F - 26.6 °F 93% 29.73 in 3.0 mi Calm Calm - N/A   Clear
4:55 AM 28.4 °F 24.6 °F 24.8 °F 86% 29.72 in 3.0 mi South 3.5 mph - N/A   Clear
5:15 AM 28.4 °F 21.2 °F 24.8 °F 86% 29.72 in 4.0 mi South 6.9 mph - N/A   Clear
5:35 AM 26.6 °F 18.2 °F 23.0 °F 86% 29.72 in 5.0 mi South 8.1 mph - N/A   Clear
5:55 AM 28.4 °F 22.2 °F 24.8 °F 86% 29.72 in 7.0 mi South 5.8 mph - N/A   Clear
6:15 AM 26.6 °F 20.0 °F 24.8 °F 93% 29.73 in 6.0 mi SSW 5.8 mph - N/A   Clear
6:35 AM 26.6 °F 20.0 °F 23.0 °F 86% 29.73 in 5.0 mi SW 5.8 mph - N/A   Clear
6:55 AM 26.6 °F 19.1 °F 21.2 °F 80% 29.72 in 4.0 mi South 6.9 mph - N/A   Scattered Clouds
7:15 AM 26.6 °F 18.2 °F 21.2 °F 80% 29.72 in 5.0 mi South 8.1 mph - N/A   Scattered Clouds
7:35 AM 26.6 °F 19.1 °F 23.0 °F 86% 29.72 in 5.0 mi South 6.9 mph - N/A   Clear
7:55 AM 26.6 °F 18.2 °F 21.2 °F 80% 29.72 in 5.0 mi South 8.1 mph - N/A   Clear
8:15 AM 26.6 °F 18.2 °F 21.2 °F 80% 29.72 in 5.0 mi South 8.1 mph - N/A   Clear
8:35 AM 26.6 °F 19.1 °F 23.0 °F 86% 29.72 in 7.0 mi South 6.9 mph - N/A   Clear
8:55 AM 28.4 °F 19.7 °F 24.8 °F 86% 29.71 in 7.0 mi South 9.2 mph - N/A   Clear
9:15 AM 28.4 °F 20.4 °F 24.8 °F 86% 29.70 in 7.0 mi South 8.1 mph - N/A   Clear
9:35 AM 30.2 °F 21.9 °F 26.6 °F 86% 29.70 in 8.0 mi South 9.2 mph - N/A   Clear
9:55 AM 32.0 °F 23.0 °F 28.4 °F 87% 29.70 in 10.0 mi South 11.5 mph - N/A   Clear
10:15 AM 33.8 °F 24.8 °F 28.4 °F 81% 29.70 in 10.0 mi South 12.7 mph - N/A   Clear
10:35 AM 33.8 °F 24.8 °F 28.4 °F 81% 29.69 in 10.0 mi South 12.7 mph - N/A   Clear
10:55 AM 35.6 °F 26.2 °F 28.4 °F 75% 29.68 in 10.0 mi South 15.0 mph - N/A   Clear
11:15 AM 35.6 °F 26.6 °F 28.4 °F 75% 29.67 in 10.0 mi South 13.8 mph - N/A   Clear
11:35 AM 37.4 °F 29.3 °F 28.4 °F 70% 29.66 in 10.0 mi South 12.7 mph - N/A   Clear
11:55 AM 39.2 °F 31.6 °F 32.0 °F 75% 29.65 in 10.0 mi South 12.7 mph - N/A   Clear
12:15 PM 41.0 °F 34.3 °F 30.2 °F 65% 29.63 in 10.0 mi South 11.5 mph - N/A   Clear
12:35 PM 42.8 °F 36.2 °F 33.8 °F 70% 29.62 in 10.0 mi South 12.7 mph - N/A   Clear
12:55 PM 42.8 °F 35.4 °F 33.8 °F 70% 29.60 in 10.0 mi South 15.0 mph - N/A   Clear
1:15 PM 44.6 °F 37.8 °F 33.8 °F 66% 29.59 in 10.0 mi South 15.0 mph - N/A   Clear
1:35 PM 46.4 °F 40.7 °F 33.8 °F 62% 29.58 in 10.0 mi South 12.7 mph - N/A   Clear
1:55 PM 46.4 °F 40.4 °F 33.8 °F 62% 29.56 in 10.0 mi South 13.8 mph - N/A   Clear
2:15 PM 46.4 °F 40.1 °F 33.8 °F 62% 29.55 in 10.0 mi South 15.0 mph 20.7 mph N/A   Clear
2:35 PM 48.2 °F - 33.8 °F 58% 29.54 in 10.0 mi South 16.1 mph 19.6 mph N/A   Clear
2:55 PM 48.2 °F - 33.8 °F 58% 29.53 in 10.0 mi South 17.3 mph - N/A   Clear
3:15 PM 48.2 °F - 33.8 °F 58% 29.53 in 10.0 mi South 15.0 mph - N/A   Clear
3:35 PM 48.2 °F - 33.8 °F 58% 29.53 in 10.0 mi South 15.0 mph - N/A   Clear
3:55 PM 48.2 °F - 32.0 °F 54% 29.52 in 10.0 mi South 12.7 mph - N/A   Clear
4:15 PM 46.4 °F 41.5 °F 32.0 °F 57% 29.52 in 10.0 mi South 10.4 mph - N/A   Clear
4:35 PM 44.6 °F 38.8 °F 30.2 °F 57% 29.52 in 10.0 mi South 11.5 mph - N/A   Clear
4:55 PM 42.8 °F 37.0 °F 30.2 °F 61% 29.51 in 10.0 mi South 10.4 mph - N/A   Clear
5:15 PM 44.6 °F 38.8 °F 30.2 °F 57% 29.50 in 10.0 mi South 11.5 mph - N/A   Clear
5:35 PM 42.8 °F 36.6 °F 30.2 °F 61% 29.50 in 10.0 mi South 11.5 mph - N/A   Clear
5:55 PM 42.8 °F 37.5 °F 33.8 °F 70% 29.49 in 10.0 mi South 9.2 mph - N/A   Partly Cloudy
6:15 PM 44.6 °F 39.2 °F 35.6 °F 71% 29.49 in 10.0 mi South 10.4 mph - N/A   Mostly Cloudy
6:35 PM 44.6 °F 39.7 °F 35.6 °F 71% 29.49 in 10.0 mi South 9.2 mph - N/A   Overcast
6:55 PM 44.6 °F 38.4 °F 37.4 °F 76% 29.48 in 10.0 mi SSE 12.7 mph - 0.01 in   Mostly Cloudy
7:15 PM 44.6 °F 38.4 °F 37.4 °F 76% 29.47 in 10.0 mi SSE 12.7 mph - N/A   Mostly Cloudy
7:35 PM 44.6 °F 38.4 °F 37.4 °F 76% 29.46 in 10.0 mi SSE 12.7 mph - N/A   Mostly Cloudy
7:55 PM 44.6 °F 38.4 °F 37.4 °F 76% 29.46 in 10.0 mi SSE 12.7 mph - N/A   Mostly Cloudy
8:15 PM 44.6 °F 38.4 °F 37.4 °F 76% 29.45 in 10.0 mi SSE 12.7 mph - N/A   Mostly Cloudy
8:35 PM 44.6 °F 38.4 °F 35.6 °F 71% 29.44 in 10.0 mi SSE 12.7 mph 18.4 mph N/A   Overcast
8:55 PM 44.6 °F 37.2 °F 35.6 °F 71% 29.43 in 10.0 mi SSE 17.3 mph - N/A   Overcast
9:15 PM 44.6 °F 37.4 °F 35.6 °F 71% 29.43 in 10.0 mi SSE 16.1 mph - N/A   Mostly Cloudy
9:35 PM 44.6 °F 37.4 °F 35.6 °F 71% 29.43 in 10.0 mi SSE 16.1 mph 23.0 mph N/A   Mostly Cloudy
9:55 PM 44.6 °F 37.4 °F 33.8 °F 66% 29.42 in 10.0 mi South 16.1 mph - N/A   Overcast
10:15 PM 44.6 °F 37.8 °F 33.8 °F 66% 29.42 in 10.0 mi SSE 15.0 mph - N/A   Mostly Cloudy
10:35 PM 44.6 °F 37.4 °F 33.8 °F 66% 29.41 in 10.0 mi South 16.1 mph 20.7 mph N/A   Mostly Cloudy
10:55 PM 44.6 °F 37.2 °F 33.8 °F 66% 29.40 in 10.0 mi South 17.3 mph 23.0 mph N/A   Overcast
11:15 PM 44.6 °F 37.2 °F 33.8 °F 66% 29.40 in 10.0 mi South 17.3 mph 24.2 mph N/A   Overcast
11:35 PM 44.6 °F 37.2 °F 33.8 °F 66% 29.39 in 10.0 mi South 17.3 mph 21.9 mph N/A   Overcast
11:55 PM 44.6 °F 37.8 °F 33.8 °F 66% 29.39 in 10.0 mi South 15.0 mph - N/A   Mostly Cloudy